Wind_Speed
4 4 4 4 4 4 5 5 7 9 10 11 13 14 15 13 14 13 12 13 14 15 16 17 14 18 13 14 18 18 19 18 19 19 18 18 18 17 16 14 13 13 13
6 6 6 6 6 7 7 8 10 10 11 10 11 12 13 14 15 15 16 15 16 16 19 20 21 17 20 18 18 20 20 19 19 19 20 20 20 19 18 17 16 14 13
9 9 8 8 8 9 11 12 12 12 12 12 12 11 13 14 15 17 17 18 16 18 19 22 23 21 21 24 23 21 21 22 22 21 21 23 22 21 22 21 19 17 16
11 11 11 9 8 8 8 9 10 11 12 11 13 13 10 12 12 13 15 17 16 13 18 23 27 27 25 23 25 23 22 22 22 23 23 23 24 24 23 22 20 19 20
12 13 11 10 10 8 8 7 9 10 12 12 12 12 12 12 9 5 8 9 12 14 20 20 26 29 28 27 25 25 23 21 21 23 23 23 24 25 24 24 23 22 21
15 15 12 11 10 9 8 8 11 9 11 11 12 13 13 9 5 5 9 5 6 8 12 15 20 28 30 28 29 25 25 23 27 23 22 24 24 24 24 25 25 24 23
15 15 12 12 13 11 8 8 8 9 10 7 10 12 9 7 4 3 8 5 5 6 9 10 14 21 27 29 29 28 24 24 27 28 23 23 25 25 25 25 26 26 25
13 15 14 14 14 10 11 10 9 8 7 6 7 9 5 3 2 12 5 4 5 7 10 12 14 16 22 21 25 26 27 25 28 32 27 24 22 23 25 26 27 27 26
12 13 14 14 14 11 10 10 10 8 8 7 5 5 4 4 13 4 6 2 5 11 11 11 15 15 15 19 21 24 27 27 29 33 32 28 26 24 23 25 27 28 28
12 14 14 15 14 12 13 10 8 8 7 8 8 6 7 8 3 7 5 9 10 11 11 10 9 11 12 16 18 25 27 30 34 32 35 33 32 30 27 25 26 28 29
14 15 15 15 15 14 15 16 13 10 8 9 9 9 8 7 3 5 8 13 12 12 11 11 4 6 7 11 15 19 24 29 33 34 30 35 34 37 30 31 26 26 27
7 12 14 15 15 15 15 14 15 15 12 10 10 9 9 6 9 6 7 12 12 9 9 8 2 2 3 7 12 15 19 25 28 29 32 33 35 35 33 30 28 28 27
11 12 13 15 13 13 12 12 13 14 13 13 11 10 9 10 8 8 8 9 4 9 6 4 4 2 1 3 11 16 17 20 25 27 29 30 31 31 36 37 41 32 32
14 13 13 13 12 12 12 12 12 12 10 11 13 10 10 9 8 8 9 7 6 6 7 6 3 1 2 4 5 10 17 21 24 26 28 30 30 31 35 39 38 41 39
16 17 16 16 14 14 11 12 11 11 11 12 12 11 9 8 7 5 5 7 6 6 8 5 5 4 5 7 10 12 13 16 16 20 28 33 30 29 31 34 40 40 37
21 20 18 16 15 15 14 15 12 11 12 11 10 11 10 10 9 6 5 6 7 9 6 11 12 13 13 14 15 17 17 18 18 19 20 21 28 23 28 32 34 39 40
23 22 21 21 18 16 15 13 11 13 13 9 11 9 9 7 7 6 7 9 10 10 11 18 14 15 16 13 13 14 15 15 15 16 17 18 22 21 24 30 34 40 41
24 24 22 19 17 16 16 13 11 11 9 8 9 10 9 7 8 6 6 9 11 12 11 14 15 13 14 16 16 14 14 15 16 15 14 16 19 20 18 20 20 28 39
26 21 20 20 19 17 14 13 12 11 8 6 5 6 7 7 8 8 9 10 11 10 10 12 13 12 14 13 15 16 15 15 17 19 18 19 23 24 22 21 22 21 23
22 19 19 21 21 19 18 14 8 7 7 3 4 5 4 5 7 8 9 10 11 12 11 12 15 13 12 15 13 13 15 12 14 14 16 18 21 29 29 23 22 22 24
17 17 20 20 18 17 17 13 10 11 9 1 4 5 5 6 7 7 8 7 8 11 12 10 11 13 13 12 13 13 15 16 15 14 14 15 15 18 26 32 31 28 29
18 19 13 11 14 18 16 15 14 12 5 2 2 4 7 8 6 9 9 8 9 7 9 9 10 9 10 12 11 13 14 15 10 6 7 9 9 14 16 20 28 30 30
20 18 17 17 16 12 13 13 11 7 4 4 2 3 5 5 8 9 11 12 12 11 10 9 11 11 10 9 11 14 13 14 16 19 17 18 13 15 15 16 18 22 31
23 23 18 13 9 7 9 9 6 4 4 4 1 4 6 5 5 8 10 12 12 12 12 12 14 14 13 13 13 14 16 19 19 19 17 15 18 18 14 15 19 21 24
24 21 17 8 8 4 6 6 5 3 5 5 5 5 6 7 8 10 12 13 14 15 15 19 19 21 22 21 20 16 19 20 20 21 15 14 20 18 17 19 19 21 22
22 12 7 10 9 6 7 6 5 4 7 8 8 6 10 11 11 12 11 13 16 17 18 21 23 24 23 23 24 20 19 21 22 21 23 22 22 19 17 18 17 17 19
Wind_Direction
232 251 266 273 278 275 289 287 288 291 294 288 287 289 281 275 272 273 266 263 246 244 228 222 229 217 227 237 235 234 220 215 213 209 209 207 204 206 202 199 198 198 192
239 254 269 281 275 275 281 291 295 290 287 283 284 286 285 274 276 275 270 263 255 243 237 227 231 224 222 228 236 233 230 222 220 217 210 212 210 208 205 204 202 203 200
254 264 270 277 284 285 284 284 288 296 296 297 296 288 285 289 285 285 278 272 263 252 243 235 228 230 227 223 227 229 230 228 223 221 215 215 213 214 211 211 208 203 205
258 270 274 279 287 290 280 276 280 283 290 296 303 311 294 287 280 287 286 274 262 254 254 238 236 230 230 231 227 227 226 231 229 226 223 222 217 215 216 212 208 211 207
258 268 270 277 287 280 283 273 277 282 304 309 304 301 304 294 291 316 327 282 259 252 239 237 235 231 229 230 230 226 223 219 232 232 230 227 221 217 217 217 216 213 215
256 262 265 270 273 270 267 274 287 287 291 297 305 312 310 305 289 256 327 290 267 265 254 248 232 227 230 229 229 232 222 213 222 232 236 233 228 223 219 218 218 217 217
253 261 256 262 264 260 262 278 281 294 309 319 316 326 319 320 273 245 319 319 299 289 284 263 232 228 228 234 233 230 225 216 217 223 234 238 233 228 224 221 218 220 219
240 247 252 253 256 259 269 272 281 295 298 316 326 322 336 354 4 315 328 305 306 291 290 274 256 234 230 229 234 232 224 217 216 219 228 236 234 234 229 226 223 221 221
243 243 248 252 258 257 269 276 272 271 298 312 307 319 332 334 327 322 313 293 316 320 305 285 263 253 235 229 224 226 224 219 220 224 226 230 237 237 234 231 227 225 223
241 250 254 256 262 260 271 282 279 269 269 303 317 326 308 293 328 318 325 325 330 338 329 315 280 250 251 237 225 223 220 220 225 226 226 230 236 237 238 234 230 229 227
246 250 258 262 266 266 270 278 282 279 276 278 300 296 304 304 287 239 308 325 333 347 346 346 315 270 259 241 221 217 217 226 232 234 227 224 230 233 233 234 229 228 227
246 248 256 262 266 267 272 279 279 276 271 268 278 275 281 288 315 301 292 318 319 332 343 5 21 352 262 259 213 215 225 233 232 240 240 234 233 232 227 227 228 229 226
243 249 271 277 273 278 285 294 296 286 272 269 273 280 286 291 293 299 284 295 296 322 328 339 11 340 353 252 216 226 237 239 238 242 238 238 237 241 230 225 226 229 230
245 257 274 277 277 278 291 296 304 302 294 289 303 290 298 302 298 296 277 291 312 286 315 316 310 290 237 272 260 253 249 256 254 247 246 244 243 244 239 230 228 231 227
247 258 259 277 276 280 284 292 291 292 290 296 306 311 304 303 294 281 269 260 263 306 318 311 301 275 275 272 273 274 260 260 264 252 244 240 237 238 242 239 233 233 231
240 248 250 258 271 277 282 289 290 289 291 299 303 309 310 308 301 270 255 247 242 266 291 306 290 290 288 285 282 284 271 275 267 267 262 252 236 242 238 238 238 236 233
240 243 246 254 258 262 277 272 268 290 298 299 311 306 305 302 297 297 290 283 270 246 260 291 291 293 290 281 285 285 276 264 267 277 260 250 228 235 241 247 246 238 236
234 237 243 246 250 266 283 275 284 293 287 305 313 313 325 327 319 308 290 284 280 270 253 277 295 290 289 298 291 282 274 269 261 264 262 242 231 223 232 255 258 239 236
232 231 235 239 252 265 261 268 282 291 298 293 297 303 320 327 329 324 313 306 304 301 288 272 285 296 294 303 304 296 285 272 275 269 259 240 229 227 230 241 252 253 257
227 227 227 234 241 241 243 240 213 252 261 263 311 308 311 318 320 318 317 315 310 307 305 297 296 291 291 305 302 299 301 281 283 276 270 246 232 234 231 230 238 236 247
220 223 227 226 230 230 232 222 224 218 208 157 302 309 310 327 327 331 322 326 329 326 322 319 309 310 310 318 319 313 298 300 290 276 270 261 242 230 233 234 235 230 226
206 214 218 220 225 238 235 214 210 201 204 188 241 294 300 306 304 312 304 294 300 298 311 314 310 312 316 317 323 313 308 308 301 283 277 267 254 249 236 236 239 231 224
191 193 203 206 212 223 213 213 200 172 186 204 224 278 292 301 318 309 293 284 280 282 285 284 286 295 295 301 307 306 306 298 282 284 288 277 259 259 258 253 253 242 234
185 193 188 194 211 213 205 195 193 199 221 221 218 260 272 306 320 306 289 285 281 279 276 273 276 282 282 289 286 285 285 287 285 282 268 263 264 257 253 252 257 254 244
182 190 182 191 179 184 191 212 214 236 229 230 241 246 271 287 287 284 283 279 282 284 289 293 293 293 291 290 290 288 286 284 283 280 271 251 270 266 261 258 247 253 247
168 180 161 142 139 137 212 238 260 242 239 253 259 268 281 282 294 303 291 286 287 290 298 296 294 292 290 288 291 281 273 278 284 280 271 256 265 265 268 249 248 233 241
Height
850 851 851 851 851 852 851 851 850 850 849 848 848 847 846 846 846 846 844 844 845 845 847 848 848 850 851 852 853 856 857 859 859 861 862 865 867 869 871 873 875 877 878
848 850 850 851 851 851 850 849 848 847 846 846 845 843 842 841 841 841 840 840 840 841 842 844 845 846 847 849 850 852 853 855 857 857 860 862 864 866 868 871 873 875 877
846 848 848 849 849 849 848 847 847 845 844 843 841 841 840 838 837 836 835 835 836 837 837 838 839 842 843 845 846 848 848 851 852 854 856 858 860 863 866 868 870 873 875
845 845 846 847 847 847 846 845 845 844 842 841 840 838 837 836 834 832 830 829 829 829 830 832 833 836 838 839 841 843 845 846 849 851 853 855 857 859 863 865 867 870 872
842 843 844 845 845 844 843 844 843 842 841 840 838 835 833 831 831 829 828 826 825 823 823 825 825 828 832 834 835 838 840 842 845 847 850 852 854 855 859 862 865 867 870
839 840 842 842 842 841 840 841 840 841 839 838 835 832 830 828 827 825 825 824 822 821 820 819 820 822 824 828 829 831 835 837 839 843 846 849 851 853 855 858 861 864 867
836 837 838 839 838 837 839 838 838 838 837 836 834 830 828 825 823 823 822 821 820 819 818 816 817 817 818 819 823 826 830 834 834 840 842 845 847 850 852 854 856 860 862
833 834 834 834 834 836 837 836 837 837 836 835 834 831 825 825 824 822 820 819 818 816 814 813 812 812 812 815 817 820 824 828 829 834 838 840 843 845 847 850 853 855 858
830 830 830 831 833 834 835 835 834 836 836 834 833 833 828 827 824 821 819 817 816 814 812 810 807 807 808 809 812 815 818 822 824 827 832 835 838 840 842 846 847 850 853
827 828 828 829 831 832 832 833 834 834 834 833 832 830 830 830 827 819 817 817 815 811 809 806 805 804 804 805 806 809 813 816 818 819 823 828 831 835 838 840 842 845 848
824 825 825 827 828 829 830 831 831 831 831 831 830 829 829 827 827 827 817 814 813 811 807 804 803 802 802 804 805 806 810 812 814 815 819 820 822 827 831 835 837 840 843
822 822 823 823 824 825 826 827 827 827 827 827 827 826 826 826 823 825 821 815 814 809 807 804 802 800 801 802 803 806 807 808 810 811 813 815 817 820 824 828 831 834 838
820 820 821 821 822 823 824 825 824 824 824 823 822 823 823 823 823 822 821 817 816 809 807 804 802 800 799 800 801 803 803 804 807 807 808 810 810 813 813 817 822 827 831
817 818 819 819 819 820 822 823 822 822 821 820 821 820 821 821 820 820 819 817 814 808 807 804 802 801 799 799 799 799 798 796 796 799 803 803 804 805 808 810 813 817 822
813 815 816 816 817 818 819 820 820 819 819 819 819 818 817 816 815 814 815 816 816 809 800 800 801 800 799 798 797 796 794 792 790 789 791 794 796 798 799 802 805 809 812
808 809 811 812 812 813 814 814 815 816 815 817 816 816 815 814 813 811 810 809 810 812 807 801 799 797 796 794 793 791 789 787 784 784 783 783 786 789 792 795 798 801 805
802 803 804 805 806 806 807 808 809 811 813 814 814 813 812 809 809 810 811 810 807 805 803 797 796 795 791 788 786 785 784 781 780 777 777 778 779 782 787 790 791 793 795
794 797 798 799 801 802 804 806 807 809 809 809 811 812 812 810 809 805 803 803 802 801 800 796 793 791 789 788 784 779 778 779 776 772 772 772 775 776 778 783 784 784 786
787 791 794 795 796 798 800 800 803 806 804 805 807 808 808 808 807 806 804 802 800 797 796 794 790 788 785 782 780 778 775 773 773 770 766 767 770 772 771 774 777 779 779
782 786 787 787 788 789 790 791 788 795 799 802 804 806 804 803 803 802 802 800 798 796 791 790 789 786 783 780 777 774 771 768 767 766 764 762 760 764 766 766 768 771 773
777 780 781 783 785 786 786 788 789 788 790 790 800 801 801 799 799 798 797 796 795 794 793 789 787 785 781 778 776 772 769 765 762 760 758 758 757 755 758 759 760 763 762
772 774 779 783 785 785 784 784 779 781 784 788 794 796 796 794 794 794 795 794 792 791 790 787 783 780 779 777 775 772 769 765 757 756 755 752 752 751 750 750 749 751 755
765 768 772 773 775 779 782 783 781 780 785 787 787 790 792 791 789 790 791 790 789 786 785 784 783 779 777 773 772 770 767 763 759 755 754 749 747 746 746 745 743 745 746
760 762 768 774 777 781 782 782 781 779 783 786 783 787 789 787 785 786 787 787 785 783 781 780 778 775 773 769 768 765 763 760 754 750 749 745 741 738 738 739 738 738 739
755 762 763 766 774 779 782 781 779 779 782 783 783 784 785 783 781 781 781 780 779 776 775 773 771 770 768 766 763 761 758 753 747 744 743 741 735 734 732 730 729 729 731
752 760 768 766 769 773 778 779 779 778 781 783 783 782 780 779 779 777 777 777 774 772 772 769 766 763 761 759 757 754 752 748 744 740 738 736 733 729 726 722 723 721 721